Prague, Czech Republic

9:25 AM CEST on October 22, 2017 (GMT +0200)
Ruzyne

Weather History for LKPR - May, 2013

Change the Weather History Date:

Sunday, May 26, 2013

  Actual Average Record
Temperature  
Mean Temperature 43 °F -  
Max Temperature 46 °F 70 °F 84 °F (2007)
Min Temperature 40 °F 50 °F 37 °F (1997)
Degree Days  
Heating Degree Days 22    
Moisture  
Dew Point 40 °F    
Average Humidity 90    
Maximum Humidity 100    
Minimum Humidity 81    
Precipitation  
Precipitation 0.16 in 0.10 in - ()
Sea Level Pressure  
Sea Level Pressure 29.70 in    
Wind  
Wind Speed 13 mph ()    
Max Wind Speed 25 mph    
Max Gust Speed 36 mph    
Visibility 6.8 miles    
Events Rain    
Averages and records for this station are not official NWS values.
T = Trace of Precipitation, MM = Missing Value Source: Averaged Metar Reports

Daily Weather History Graph

Daily Weather History Graph

Search for Another Location

Airport or City:

Trip Planner

Search our weather history database for the weather conditions in past years. The results will help you decide how hot, cold, wet, or windy it might be!

Date:

Astronomy

May. 26, 2013 Rise Set
Actual Time 5:03 AM CEST 8:57 PM CEST
Civil Twilight 4:21 AM CEST 9:39 PM CEST
Nautical Twilight 3:23 AM CEST 10:37 PM CEST
Astronomical Twilight 1:47 AM CEST 12:17 AM CEST
Moon 10:25 PM CEST (5/26) 6:15 AM CEST (5/26)
Length of Visible Light 17h 17m
Length of Day
15h 53m
Full, 98% of the Moon is Illuminated
May 26
Full
May 31
Last Quarter
Jun 8
New
Jun 16
First Quarter
Jun 23
Full

Hourly Weather History & Observations

Time (CEST) Temp. Windchill Dew Point Humidity Pressure Visibility Wind Dir Wind Speed Gust Speed Precip Events Conditions
12:00 AM 42.8 °F 37.5 °F 41.0 °F 93% 29.77 in - SW 9.2 mph - N/A   Clear
12:30 AM 41.0 °F 35.8 °F 41.0 °F 100% 29.77 in 6.2 mi SW 8.1 mph - N/A   Scattered Clouds
1:00 AM 41.0 °F 35.2 °F 41.0 °F 100% 29.77 in 6.2 mi SW 9.2 mph - N/A   Mostly Cloudy
1:30 AM 41.0 °F 35.2 °F 41.0 °F 100% 29.77 in 6.2 mi SW 9.2 mph - N/A   Scattered Clouds
2:00 AM 42 °F - 41 °F 93% 29.81 in 19 mi SSW 8.9 mph - -   Mostly Cloudy
2:00 AM 41.0 °F 35.8 °F 41.0 °F 100% 29.77 in 6.2 mi SSW 8.1 mph - N/A   Mostly Cloudy
2:30 AM 42.8 °F 37.0 °F 41.0 °F 93% 29.77 in 6.2 mi SW 10.4 mph - N/A   Mostly Cloudy
3:00 AM 41.0 °F 35.2 °F 39.2 °F 93% 29.74 in 6.2 mi SSW 9.2 mph - N/A   Partly Cloudy
3:30 AM 41.0 °F 35.2 °F 39.2 °F 93% 29.74 in 6.2 mi SSW 9.2 mph - N/A   Partly Cloudy
4:00 AM 41.0 °F 34.7 °F 39.2 °F 93% 29.74 in 6.2 mi SSW 10.4 mph - N/A   Partly Cloudy
4:30 AM 42.8 °F 36.6 °F 41.0 °F 93% 29.71 in 6.2 mi SSW 11.5 mph - N/A   Partly Cloudy
5:00 AM 41.0 °F 34.7 °F 39.2 °F 93% 29.71 in - SSW 10.4 mph - N/A   Clear
5:30 AM 41.0 °F 34.7 °F 39.2 °F 93% 29.71 in - SSW 10.4 mph - N/A   Clear
6:00 AM 41.0 °F 34.3 °F 39.2 °F 93% 29.71 in - SW 11.5 mph - N/A   Clear
6:30 AM 42.8 °F 36.2 °F 41.0 °F 93% 29.71 in - SW 12.7 mph - N/A   Clear
7:00 AM 44.6 °F 37.8 °F 41.0 °F 87% 29.71 in 6.2 mi SW 15.0 mph - N/A   Scattered Clouds
7:30 AM 44.6 °F 37.2 °F 41.0 °F 87% 29.68 in 6.2 mi WSW 17.3 mph - N/A   Mostly Cloudy
8:00 AM 45 °F - 41 °F 82% 29.73 in 19 mi WSW 15.7 mph - -   Mostly Cloudy
8:00 AM 44.6 °F 36.9 °F 41.0 °F 87% 29.68 in 6.2 mi SW 18.4 mph - N/A   Mostly Cloudy
8:13 AM 44.6 °F 36.6 °F 41.0 °F 87% 29.71 in 6.2 mi WSW 19.6 mph - N/A Rain Light Rain
8:30 AM 44.6 °F 36.6 °F 41.0 °F 87% 29.68 in 6.2 mi WSW 19.6 mph - N/A Rain Light Rain
8:38 AM 44.6 °F 37.2 °F 41.0 °F 87% 29.68 in 6.2 mi SW 17.3 mph 28.8 mph N/A Rain Light Rain
9:00 AM 44.6 °F 36.6 °F 41.0 °F 87% 29.68 in 6.2 mi SW 19.6 mph - N/A Rain Light Rain
9:30 AM 44.6 °F 36.6 °F 39.2 °F 81% 29.68 in 6.2 mi WSW 19.6 mph - N/A Rain Light Rain
9:48 AM 44.6 °F 36.4 °F 41.0 °F 87% 29.68 in 6.2 mi WSW 20.7 mph 32.2 mph N/A Rain Light Rain
10:00 AM 44.6 °F 36.1 °F 41.0 °F 87% 29.68 in 6.2 mi SW 21.9 mph - N/A Rain Light Rain
10:30 AM 44.6 °F 36.4 °F 41.0 °F 87% 29.71 in 6.2 mi SW 20.7 mph - N/A Rain Light Rain
11:00 AM 44.6 °F 36.6 °F 41.0 °F 87% 29.71 in 6.2 mi SW 19.6 mph - N/A Rain Light Rain
11:30 AM 44.6 °F 36.9 °F 41.0 °F 87% 29.68 in 6.2 mi SW 18.4 mph - N/A Rain Light Rain
12:00 PM 44.6 °F 36.6 °F 41.0 °F 87% 29.68 in 6.2 mi SW 19.6 mph - N/A Rain Light Rain
12:30 PM 44.6 °F 36.9 °F 41.0 °F 87% 29.71 in 6.2 mi WSW 18.4 mph - N/A Rain Light Rain
1:00 PM 44.6 °F 36.1 °F 41.0 °F 87% 29.68 in 6.2 mi WSW 21.9 mph - N/A Rain Light Rain
1:30 PM 44.6 °F 36.6 °F 41.0 °F 87% 29.71 in 6.2 mi SW 19.6 mph - N/A Rain Light Rain
2:00 PM 44 °F - 41 °F 87% 29.73 in 12 mi SW 17.9 mph - - Rain Light Rain
2:00 PM 44.6 °F 36.1 °F 41.0 °F 87% 29.68 in 6.2 mi WSW 21.9 mph - N/A Rain Light Rain
2:16 PM 44.6 °F 36.1 °F 41.0 °F 87% 29.68 in 6.2 mi WSW 21.9 mph 33.4 mph N/A Rain Light Rain
2:30 PM 44.6 °F 36.4 °F 41.0 °F 87% 29.68 in 6.2 mi WSW 20.7 mph - N/A Rain Light Rain
3:00 PM 44.6 °F 36.9 °F 41.0 °F 87% 29.68 in 6.2 mi SW 18.4 mph - N/A Rain Light Rain
3:30 PM 44.6 °F 36.1 °F 39.2 °F 81% 29.68 in 6.2 mi WSW 21.9 mph - N/A Rain Light Rain
3:46 PM 44.6 °F 36.6 °F 39.2 °F 81% 29.68 in 6.2 mi WSW 19.6 mph - N/A   Overcast
4:00 PM 44.6 °F 36.4 °F 41.0 °F 87% 29.68 in 6.2 mi WSW 20.7 mph - N/A   Overcast
4:12 PM 44.6 °F 36.6 °F 41.0 °F 87% 29.68 in 6.2 mi SW 19.6 mph 32.2 mph N/A   Overcast
4:30 PM 44.6 °F 35.5 °F 41.0 °F 87% 29.68 in 6.2 mi SW 25.3 mph - N/A Rain Light Rain
4:36 PM 44.6 °F 35.7 °F 41.0 °F 87% 29.68 in 6.2 mi WSW 24.2 mph 35.7 mph N/A Rain Light Rain
5:00 PM 44.6 °F 36.1 °F 39.2 °F 81% 29.68 in 6.2 mi SW 21.9 mph - N/A Rain Light Rain
5:30 PM 44.6 °F 36.9 °F 41.0 °F 87% 29.68 in 6.2 mi SW 18.4 mph - N/A Rain Light Rain
6:00 PM 42.8 °F 34.3 °F 41.0 °F 93% 29.68 in 6.2 mi WSW 19.6 mph - N/A Rain Light Rain
6:30 PM 42.8 °F 34.3 °F 39.2 °F 87% 29.68 in 6.2 mi SW 19.6 mph - N/A Rain Light Rain
6:38 PM 42.8 °F 34.0 °F 39.2 °F 87% 29.68 in 6.2 mi SW 20.7 mph 32.2 mph N/A Rain Light Rain
7:00 PM 42.8 °F 34.3 °F 39.2 °F 87% 29.68 in 6.2 mi SW 19.6 mph - N/A Rain Light Rain
7:30 PM 42.8 °F 34.5 °F 39.2 °F 87% 29.65 in 6.2 mi SW 18.4 mph - N/A Rain Light Rain
8:00 PM 42 °F - 40 °F 89% 29.71 in 9 mi SW 13.4 mph - - Rain Light Rain
8:00 PM 42.8 °F 35.8 °F 41.0 °F 93% 29.65 in 6.2 mi SW 13.8 mph - N/A Rain Light Rain
8:30 PM 42.8 °F 35.4 °F 39.2 °F 87% 29.65 in 6.2 mi SW 15.0 mph - N/A Rain Light Rain
9:00 PM 41.0 °F 33.1 °F 39.2 °F 93% 29.65 in 6.2 mi SW 15.0 mph - N/A Rain Light Rain
9:30 PM 41.0 °F 33.1 °F 39.2 °F 93% 29.65 in 6.2 mi SW 15.0 mph - N/A Rain Light Rain
10:00 PM 41.0 °F 33.1 °F 41.0 °F 100% 29.65 in 6.2 mi SW 15.0 mph - N/A Rain Light Rain
10:30 PM 41.0 °F 33.1 °F 41.0 °F 100% 29.65 in 6.2 mi SW 15.0 mph - N/A Rain Light Rain
11:00 PM 42.8 °F 35.4 °F 41.0 °F 93% 29.65 in 6.2 mi SSW 15.0 mph - N/A Rain Light Rain
11:30 PM 42.8 °F 35.8 °F 41.0 °F 93% 29.65 in 6.2 mi SSW 13.8 mph - N/A Rain Light Rain